INS-2TD

Last updated on Thu Nov 07 2024 00:02:26 GMT+0000 (Coordinated Universal Time)

1 51658U 22013C 24311.59140462 .12263631 26134-5 10562-2 0 9996 2 51658 97.4683 343.5705 0008463 256.3347 103.7009 16.39401207152238

Satellite not in orbit

INS-2TD